Weather History for KWWD - May, 2013

Change the Weather History Date:

Monday, May 27, 2013

  Actual Average Record
Temperature  
Mean Temperature 58 °F -  
Max Temperature 71 °F 69 °F 87 °F (2014)
Min Temperature 44 °F 55 °F 44 °F (2013)
Degree Days  
Heating Degree Days 8    
Growing Degree Days 8 (Base 50)    
Moisture  
Dew Point 45 °F    
Average Humidity 63    
Maximum Humidity 93    
Minimum Humidity 31    
Precipitation  
Precipitation 0.00 in - - ()
Sea Level Pressure  
Sea Level Pressure 30.22 in    
Wind  
Wind Speed 3 mph (South)    
Max Wind Speed 10 mph    
Max Gust Speed -    
Averages and records for this station are not official NWS values.
T = Trace of Precipitation, MM = Missing Value Source: NWS Daily Summary

Daily Weather History Graph

Daily Weather History Graph

Search for Another Location

Airport or City:

Trip Planner

Search our weather history database for the weather conditions in past years. The results will help you decide how hot, cold, wet, or windy it might be!

Date:

Astronomy

May. 27, 2013 Rise Set
Actual Time 5:38 AM EDT 8:15 PM EDT
Civil Twilight 5:06 AM EDT 8:47 PM EDT
Nautical Twilight 4:28 AM EDT 9:26 PM EDT
Astronomical Twilight 3:44 AM EDT 10:09 PM EDT
Moon 10:53 PM EDT (5/27) 8:12 AM EDT (5/27)
Length of Visible Light 15h 40m
Length of Day
14h 37m
Waning Gibbous, 91% of the Moon is Illuminated
May 27
Waning Gibbous
May 31
Last Quarter
Jun 8
New
Jun 16
First Quarter
Jun 23
Full

Hourly Weather History & Observations

Time (EDT) Temp. Windchill Dew Point Humidity Pressure Visibility Wind Dir Wind Speed Gust Speed Precip Events Conditions
12:15 AM 51.8 °F - 46.4 °F 82% 30.18 in - Calm Calm - N/A   Clear
12:35 AM 51.8 °F - 44.6 °F 76% 30.18 in - Calm Calm - N/A   Clear
12:55 AM 48.2 °F - 44.6 °F 87% 30.19 in - North 8.1 mph - N/A   Unknown
1:15 AM 51.8 °F - 48.2 °F 88% 30.20 in - North 4.6 mph - N/A   Unknown
1:35 AM 51.8 °F - 46.4 °F 82% 30.20 in - NNE 3.5 mph - N/A   Clear
1:55 AM 50.0 °F - 46.4 °F 87% 30.20 in - Calm Calm - N/A   Unknown
2:15 AM 50.0 °F - 44.6 °F 82% 30.20 in - NE 3.5 mph - N/A   Clear
2:35 AM 50.0 °F - 42.8 °F 76% 30.20 in - NE 3.5 mph - N/A   Clear
2:55 AM 50.0 °F - 42.8 °F 76% 30.20 in - Calm Calm - N/A   Clear
3:15 AM 48.2 °F - 42.8 °F 82% 30.20 in - NE 3.5 mph - N/A   Clear
3:35 AM 48.2 °F - 41.0 °F 76% 30.20 in - Calm Calm - N/A   Clear
3:55 AM 46.4 °F 45.2 °F 42.8 °F 87% 30.20 in - NE 3.5 mph - N/A   Unknown
4:15 AM 48.2 °F - 41.0 °F 76% 30.20 in - NE 4.6 mph - N/A   Clear
4:35 AM 48.2 °F - 42.8 °F 82% 30.20 in - NE 4.6 mph - N/A   Clear
4:55 AM 48.2 °F - 42.8 °F 82% 30.21 in - NNE 3.5 mph - N/A   Clear
5:15 AM 46.4 °F - 42.8 °F 87% 30.21 in - Calm Calm - N/A   Unknown
5:35 AM 46.4 °F - 42.8 °F 87% 30.22 in - Calm Calm - N/A   Unknown
5:55 AM 44.6 °F - 42.8 °F 93% 30.22 in - Calm Calm - N/A   Unknown
6:15 AM 46.4 °F - 42.8 °F 87% 30.23 in - Calm Calm - N/A   Unknown
6:35 AM 46.4 °F - 42.8 °F 87% 30.23 in - Calm Calm - N/A   Unknown
6:55 AM 50.0 °F - 46.4 °F 87% 30.23 in - Calm Calm - N/A   Unknown
7:15 AM 53.6 °F - 48.2 °F 82% 30.23 in - Calm Calm - N/A   Clear
7:35 AM 57.2 °F - 51.8 °F 82% - - ESE 4.6 mph - N/A   Clear
7:55 AM 59.0 °F - 50.0 °F 72% - - ESE 5.8 mph - N/A   Clear
8:15 AM 60.8 °F - 48.2 °F 63% - - ESE 5.8 mph - N/A   Clear
8:35 AM 62.6 °F - 48.2 °F 59% - - ESE 5.8 mph - N/A   Clear
8:55 AM 62.6 °F - 48.2 °F 59% 30.27 in - SE 4.6 mph - N/A   Clear
9:15 AM 64.4 °F - 46.4 °F 52% 30.27 in - Calm Calm - N/A   Clear
9:35 AM 66.2 °F - 44.6 °F 46% 30.27 in - SE 4.6 mph - N/A   Clear
9:55 AM 66.2 °F - 44.6 °F 46% 30.26 in - Calm Calm - N/A   Clear
10:15 AM 68.0 °F - 41.0 °F 37% 30.29 in - South 6.9 mph - N/A   Clear
10:35 AM 68.0 °F - 39.2 °F 35% 30.28 in - Calm Calm - N/A   Clear
10:55 AM 68.0 °F - 41.0 °F 37% 30.28 in - SW 3.5 mph - N/A   Clear
11:15 AM 68.0 °F - 42.8 °F 40% 30.28 in - NW 5.8 mph - N/A   Clear
11:35 AM 68.0 °F - 39.2 °F 35% 30.28 in - WNW 5.8 mph - N/A   Clear
11:55 AM 68.0 °F - 39.2 °F 35% 30.28 in - West 5.8 mph - N/A   Clear
12:15 PM 68.0 °F - 39.2 °F 35% 30.27 in - WNW 6.9 mph - N/A   Clear
12:35 PM 69.8 °F - 39.2 °F 33% 30.27 in - WNW 6.9 mph - N/A   Clear
12:55 PM 68.0 °F - 39.2 °F 35% 30.27 in - West 6.9 mph - N/A   Clear
1:15 PM 68.0 °F - 39.2 °F 35% 30.27 in - WNW 5.8 mph - N/A   Clear
1:35 PM 68.0 °F - 39.2 °F 35% 30.26 in - WNW 5.8 mph - N/A   Clear
1:55 PM 69.8 °F - 39.2 °F 33% 30.25 in - WNW 4.6 mph - N/A   Clear
2:15 PM 69.8 °F - 37.4 °F 31% 30.24 in - WSW 3.5 mph - N/A   Clear
2:35 PM 69.8 °F - 39.2 °F 33% 30.23 in - WNW 3.5 mph - N/A   Clear
2:55 PM 71.6 °F - 41.0 °F 33% 30.23 in - SSE 6.9 mph - N/A   Clear
3:15 PM 69.8 °F - 42.8 °F 38% 30.22 in - South 9.2 mph - N/A   Clear
3:35 PM 69.8 °F - 42.8 °F 38% 30.23 in - South 10.4 mph - N/A   Clear
3:55 PM 66.2 °F - 39.2 °F 37% 30.20 in - SSE 10.4 mph - N/A   Clear
4:15 PM 66.2 °F - 39.2 °F 37% 30.20 in - SSE 9.2 mph - N/A   Clear
4:35 PM 66.2 °F - 42.8 °F 43% 30.19 in - SSE 6.9 mph - N/A   Clear
4:55 PM 66.2 °F - 44.6 °F 46% 30.19 in - SSW 8.1 mph - N/A   Clear
5:15 PM 68.0 °F - 42.8 °F 40% 30.18 in - SSE 5.8 mph - N/A   Clear
5:35 PM 66.2 °F - 44.6 °F 46% 30.19 in - SSE 5.8 mph - N/A   Clear
5:55 PM 66.2 °F - 44.6 °F 46% 30.18 in - South 5.8 mph - N/A   Clear
6:15 PM 66.2 °F - 46.4 °F 49% 30.18 in - South 6.9 mph - N/A   Clear
6:35 PM 64.4 °F - 46.4 °F 52% 30.18 in - SSW 6.9 mph - N/A   Clear
6:55 PM 64.4 °F - 48.2 °F 56% 30.19 in - South 5.8 mph - N/A   Clear
7:15 PM 64.4 °F - 48.2 °F 56% 30.19 in - South 4.6 mph - N/A   Clear
7:35 PM 62.6 °F - 50.0 °F 63% 30.18 in - South 4.6 mph - N/A   Clear
7:55 PM 62.6 °F - 51.8 °F 68% 30.19 in - South 3.5 mph - N/A   Clear
8:15 PM 60.8 °F - 51.8 °F 72% 30.19 in - South 4.6 mph - N/A   Clear
8:35 PM 60.8 °F - 51.8 °F 72% 30.18 in - South 4.6 mph - N/A   Clear
8:55 PM 60.8 °F - 53.6 °F 77% 30.19 in - SSW 3.5 mph - N/A   Clear
9:15 PM 59.0 °F - 53.6 °F 82% 30.20 in - Calm Calm - N/A   Clear
9:35 PM 60.8 °F - 53.6 °F 77% 30.20 in - Calm Calm - N/A   Clear
9:55 PM 59.0 °F - 51.8 °F 77% 30.20 in - Calm Calm - N/A   Clear
10:15 PM 59.0 °F - 53.6 °F 82% 30.21 in - Calm Calm - N/A   Clear
10:35 PM 57.2 °F - 53.6 °F 88% 30.22 in - Calm Calm - N/A   Unknown
10:55 PM 57.2 °F - 51.8 °F 82% 30.21 in - South 3.5 mph - N/A   Clear
11:15 PM 57.2 °F - 51.8 °F 82% 30.22 in - Calm Calm - N/A   Clear
11:35 PM 57.2 °F - 51.8 °F 82% 30.22 in - Calm Calm - N/A   Clear
11:55 PM 57.2 °F - 51.8 °F 82% 30.22 in - Calm Calm - N/A   Clear